Showing default

LIZZIESAT-2, 62383

Orbit data source: Space-Track

LIZZIESAT-2, 62383 is a payload satellite owned by Sidus Space (US) in LEO that was launched on Sat, 21 Dec 2024 UTC via an FALCON 9 launch vehicle from the Air Force Western Test Range (AFWTR). Payload-class satellites include a variety of spacecraft equipped with specific instruments for various scientific and technological missions. These include communications satellites like Starlink; space stations such as the ISS; scientific satellites like the Hubble; Earth observation satellites from companies like Planet Labs, Umbra, and HawkEye 360; GPS; miniature CubeSats for education and research; and military/defense satellites.

Loading next visibility...
Identifier
62383, 2024-247G
Orbit
LEO
Country
Flag of USUS
Related business
Manufacturer
Sidus Space
Mission
Operational Commercial Technology
Bus & Motor
LIZZIESAT, Unknown motor
Mass
~100 kg wet, ~100 kg dry
Launch date (UTC)
2024-12-21 (1 year ago)
Launch vehicle
FALCON 9
Launch site
Air Force Western Test Range (AFWTR)
Object type
Payload
Rocket body
Debris
Shape & HBR
Oct Cyl + 8 Pan, 0.7 m
Radar Cross Section
1.008 m², Medium (>0.1 m² and < 1m²)

Expand to show TLE details & history
Last TLE update: 1 day ago

TLE from 1 day ago
0 LIZZIESAT-2
1 62383U 24247G   25346.10657716  .00013004  00000-0  50192-3 0  9992
2 62383  44.9884 233.9474 0002339 151.4670 208.6340 15.26314341 54354
Epoch: 2025-12-12T02:33Z
TLE epoch observation values (Epoch: 2025-12-12T02:33:28.266Z)
Latitude
-0.00008°
Longitude
114.52659°
Altitude
488.248 km
Speed
7.622 km/s
True Right ascension
15h 35m 47s
True Declination
0° 00' 00"
Sunlit
Object was in daylight at epoch
Visualization orbit readout
Latitude
Unknown
Longitude
Unknown
Altitude
Unknown
Speed
Unknown
Apparent Right ascension
Unknown
Apparent Declination
Unknown
Sunlit
N/A
Visualization observer readout
Local Sidereal Time
05:23:35
Azimuth
Unknown
Elevation
Unknown
Doppler factor
Unknown
Orbital elements
Apogee altitude
490.058 km
Perigee altitude
486.846 km
Semi-major axis
6,866.589 km
Eccentricity
0.00023
Inclination
44.9884°
RAAN
233.9474°
Arg. of periapsis
151.467°
True anomaly
208.62116°
Mean anomaly
208.634°
Eccentric anomaly
208.62758°
Mean motion
3.81445 °/min
Orbital period
94.38 mins
BSTAR
0.00050192
Loading maneuver chart data...
Computing Atmospheric mass density...
Loading historical data...
Loading historical data...
Loading historical data...
Loading historical data...
Loading historical data...
Loading historical data...
Loading historical data...

Documentation

Showing up to 5 results
|